| time (UTC) | temp F | wind direction | speed MPH | gust MPH | rain 1hr in | rain 24hr in | rain mn in | humidity % | barometer mb |
| 20260504050403 | 52 | 300 | 3.0 | 5.0 | 0.00 | 0.00 | 0.00 | 89 | 1011.9 |
| 20260504045903 | 53 | 302 | 3.0 | 5.0 | 0.00 | 0.00 | 0.00 | 89 | 1011.9 |
| 20260504045404 | 53 | 293 | 2.0 | 5.0 | 0.00 | 0.00 | 0.00 | 89 | 1011.9 |
| 20260504044403 | 53 | 311 | 4.0 | 6.0 | 0.00 | 0.00 | 0.00 | 89 | 1012.0 |
| 20260504043403 | 53 | 283 | 3.0 | 5.0 | 0.00 | 0.00 | 0.00 | 90 | 1012.0 |
| 20260504042903 | 53 | 237 | 0.0 | 2.0 | 0.00 | 0.00 | 0.00 | 89 | 1011.9 |
| 20260504041903 | 53 | 272 | 1.0 | 3.0 | 0.00 | 0.00 | 0.00 | 89 | 1011.9 |
| 20260504041403 | 53 | 287 | 0.0 | 0.0 | 0.00 | 0.00 | 0.00 | 90 | 1011.9 |
| 20260504040903 | 53 | 284 | 0.0 | 0.0 | 0.00 | 0.00 | 0.00 | 89 | 1011.9 |
| 20260504040403 | 53 | 284 | 0.0 | 0.0 | 0.00 | 0.00 | 0.00 | 89 | 1011.9 |
| 20260504035903 | 53 | 285 | 2.0 | 3.0 | 0.00 | 0.00 | 0.00 | 89 | 1011.9 |
| 20260504035403 | 53 | 275 | 2.0 | 5.0 | 0.00 | 0.00 | 0.00 | 89 | 1011.9 |
| 20260504034903 | 53 | 274 | 1.0 | 3.0 | 0.00 | 0.00 | 0.00 | 89 | 1011.8 |
| 20260504034403 | 53 | 274 | 2.0 | 3.0 | 0.00 | 0.00 | 0.00 | 89 | 1011.8 |
| 20260504033903 | 53 | 281 | 2.0 | 5.0 | 0.00 | 0.00 | 0.00 | 89 | 1011.8 |
| 20260504033403 | 53 | 250 | 0.0 | 0.0 | 0.00 | 0.00 | 0.00 | 89 | 1011.8 |
| 20260504032904 | 53 | 267 | 0.0 | 0.0 | 0.00 | 0.00 | 0.00 | 89 | 1011.8 |
| 20260504031904 | 53 | 211 | 0.0 | 0.0 | 0.00 | 0.00 | 0.00 | 89 | 1011.7 |
| 20260504031404 | 53 | 210 | 0.0 | 2.0 | 0.00 | 0.00 | 0.00 | 89 | 1011.7 |
| 20260504030903 | 53 | 210 | 1.0 | 3.0 | 0.00 | 0.00 | 0.00 | 89 | 1011.8 |
| 20260504030403 | 53 | 201 | 1.0 | 3.0 | 0.00 | 0.00 | 0.00 | 89 | 1011.8 |
| 20260504025903 | 53 | 201 | 3.0 | 5.0 | 0.00 | 0.00 | 0.00 | 89 | 1011.8 |
| 20260504025404 | 53 | 233 | 2.0 | 3.0 | 0.00 | 0.00 | 0.00 | 89 | 1011.8 |
| 20260504024904 | 53 | 264 | 0.0 | 3.0 | 0.00 | 0.00 | 0.00 | 89 | 1011.8 |
| 20260504024404 | 53 | 251 | 1.0 | 3.0 | 0.00 | 0.00 | 0.00 | 89 | 1011.8 |
| 20260504023903 | 53 | 226 | 2.0 | 5.0 | 0.00 | 0.00 | 0.00 | 89 | 1011.8 |
| 20260504023403 | 53 | 226 | 4.0 | 8.0 | 0.00 | 0.00 | 0.00 | 89 | 1011.8 |
| 20260504022903 | 53 | 210 | 2.0 | 3.0 | 0.00 | 0.00 | 0.00 | 89 | 1011.8 |
| 20260504022404 | 53 | 214 | 0.0 | 3.0 | 0.00 | 0.00 | 0.00 | 89 | 1011.7 |
| 20260504021903 | 53 | 196 | 1.0 | 5.0 | 0.00 | 0.00 | 0.00 | 89 | 1011.7 |
| 20260504020904 | 53 | 239 | 2.0 | 3.0 | 0.00 | 0.00 | 0.00 | 89 | 1011.6 |
| 20260504020404 | 53 | 220 | 0.0 | 3.0 | 0.00 | 0.00 | 0.00 | 89 | 1011.7 |
| 20260504015903 | 53 | 277 | 1.0 | 3.0 | 0.00 | 0.00 | 0.00 | 89 | 1011.7 |
| 20260504015404 | 53 | 200 | 1.0 | 3.0 | 0.00 | 0.00 | 0.00 | 89 | 1011.7 |
| 20260504014903 | 53 | 228 | 1.0 | 6.0 | 0.00 | 0.00 | 0.00 | 89 | 1011.7 |
| 20260504014403 | 53 | 289 | 1.0 | 3.0 | 0.00 | 0.00 | 0.00 | 89 | 1011.7 |
| 20260504013904 | 53 | 267 | 0.0 | 3.0 | 0.00 | 0.00 | 0.00 | 89 | 1011.7 |
| 20260504012403 | 53 | 229 | 0.0 | 2.0 | 0.00 | 0.00 | 0.00 | 89 | 1011.6 |
| 20260504011904 | 53 | 293 | 0.0 | 2.0 | 0.00 | 0.00 | 0.00 | 89 | 1011.8 |
| 20260504010403 | 53 | 276 | 1.0 | 5.0 | 0.00 | 0.00 | 0.00 | 89 | 1011.8 |
| 20260504005903 | 53 | 259 | 0.0 | 3.0 | 0.00 | 0.00 | 0.00 | 89 | 1011.8 |
| 20260504004903 | 53 | 221 | 4.0 | 8.0 | 0.00 | 0.00 | 0.00 | 89 | 1011.8 |
| 20260504004404 | 53 | 218 | 0.0 | 2.0 | 0.00 | 0.00 | 0.00 | 89 | 1011.8 |
| 20260504003903 | 53 | 240 | 2.0 | 6.0 | 0.00 | 0.00 | 0.00 | 89 | 1011.7 |
| 20260504003403 | 53 | 245 | 2.0 | 5.0 | 0.00 | 0.00 | 0.00 | 89 | 1011.7 |
| 20260504002903 | 53 | 269 | 2.0 | 5.0 | 0.00 | 0.00 | 0.00 | 88 | 1011.7 |
| 20260504002403 | 53 | 204 | 2.0 | 5.0 | 0.00 | 0.00 | 0.00 | 88 | 1011.6 |
| 20260504001903 | 53 | 238 | 1.0 | 5.0 | 0.00 | 0.00 | 0.00 | 89 | 1011.6 |
| 20260504000904 | 53 | 235 | 2.0 | 5.0 | 0.00 | 0.00 | 0.00 | 88 | 1011.5 |
| 20260504000403 | 53 | 199 | 2.0 | 7.0 | 0.00 | 0.00 | 0.00 | 88 | 1011.5 |
| 20260503235904 | 53 | 217 | 1.0 | 5.0 | 0.00 | 0.00 | 0.00 | 88 | 1011.5 |
| 20260503235403 | 54 | 214 | 1.0 | 3.0 | 0.00 | 0.00 | 0.00 | 88 | 1011.7 |
| 20260503234903 | 54 | 238 | 1.0 | 3.0 | 0.00 | 0.00 | 0.00 | 88 | 1011.7 |
| 20260503234403 | 54 | 264 | 2.0 | 5.0 | 0.00 | 0.00 | 0.00 | 88 | 1011.7 |
| 20260503233903 | 54 | 205 | 2.0 | 8.0 | 0.00 | 0.00 | 0.00 | 88 | 1011.7 |
| 20260503233403 | 54 | 211 | 2.0 | 5.0 | 0.00 | 0.00 | 0.00 | 88 | 1011.7 |
| 20260503232903 | 54 | 213 | 0.0 | 0.0 | 0.00 | 0.00 | 0.00 | 88 | 1011.7 |
| 20260503232403 | 53 | 215 | 1.0 | 3.0 | 0.00 | 0.00 | 0.00 | 88 | 1011.7 |
| 20260503231903 | 53 | 232 | 2.0 | 5.0 | 0.00 | 0.00 | 0.00 | 88 | 1011.6 |
| 20260503231404 | 53 | 243 | 2.0 | 5.0 | 0.00 | 0.00 | 0.00 | 88 | 1011.6 |
| 20260503230903 | 53 | 273 | 0.0 | 3.0 | 0.00 | 0.00 | 0.00 | 88 | 1011.6 |
| 20260503230404 | 54 | 274 | 2.0 | 5.0 | 0.00 | 0.00 | 0.00 | 88 | 1011.6 |
| 20260503225903 | 53 | 265 | 0.0 | 2.0 | 0.00 | 0.00 | 0.00 | 89 | 1011.5 |
| 20260503225403 | 53 | 254 | 1.0 | 3.0 | 0.00 | 0.00 | 0.00 | 89 | 1011.5 |
| 20260503224903 | 53 | 254 | 2.0 | 5.0 | 0.00 | 0.00 | 0.00 | 89 | 1011.5 |
| 20260503224403 | 53 | 236 | 2.0 | 5.0 | 0.00 | 0.00 | 0.00 | 89 | 1011.4 |
| 20260503223903 | 53 | 250 | 0.0 | 0.0 | 0.00 | 0.00 | 0.00 | 89 | 1011.4 |
| 20260503222903 | 53 | 271 | 2.0 | 5.0 | 0.00 | 0.00 | 0.00 | 89 | 1011.1 |
| 20260503222403 | 53 | 214 | 1.0 | 2.0 | 0.00 | 0.00 | 0.00 | 89 | 1011.1 |
| 20260503221903 | 53 | 222 | 3.0 | 7.0 | 0.00 | 0.00 | 0.00 | 89 | 1011.1 |
| 20260503221403 | 53 | 238 | 3.0 | 6.0 | 0.00 | 0.00 | 0.00 | 89 | 1011.1 |
| 20260503220403 | 53 | 227 | 2.0 | 7.0 | 0.00 | 0.00 | 0.00 | 89 | 1011.1 |
| 20260503215903 | 53 | 220 | 3.0 | 8.0 | 0.00 | 0.00 | 0.00 | 89 | 1011.1 |
| 20260503215403 | 53 | 247 | 3.0 | 5.0 | 0.00 | 0.00 | 0.00 | 90 | 1011.1 |
| 20260503214904 | 53 | 243 | 2.0 | 7.0 | 0.00 | 0.00 | 0.00 | 90 | 1011.1 |
| 20260503214403 | 53 | 225 | 5.0 | 8.0 | 0.00 | 0.00 | 0.00 | 90 | 1011.1 |
| 20260503213903 | 53 | 222 | 4.0 | 6.0 | 0.00 | 0.00 | 0.00 | 90 | 1011.1 |
| 20260503213403 | 53 | 243 | 2.0 | 5.0 | 0.00 | 0.00 | 0.00 | 90 | 1011.1 |
| 20260503212903 | 53 | 228 | 1.0 | 5.0 | 0.00 | 0.00 | 0.00 | 90 | 1011.0 |
| 20260503212403 | 53 | 223 | 2.0 | 5.0 | 0.00 | 0.00 | 0.00 | 90 | 1011.0 |
| 20260503211903 | 53 | 230 | 1.0 | 3.0 | 0.00 | 0.00 | 0.00 | 90 | 1010.8 |
| 20260503211404 | 53 | 249 | 1.0 | 2.0 | 0.00 | 0.00 | 0.00 | 90 | 1010.8 |
| 20260503210904 | 53 | 263 | 1.0 | 5.0 | 0.00 | 0.00 | 0.00 | 90 | 1010.8 |
| 20260503210403 | 53 | 246 | 1.0 | 3.0 | 0.00 | 0.00 | 0.00 | 90 | 1010.8 |
| 20260503205903 | 54 | 248 | 2.0 | 3.0 | 0.00 | 0.00 | 0.00 | 90 | 1010.5 |
| 20260503205403 | 54 | 258 | 0.0 | 0.0 | 0.00 | 0.00 | 0.00 | 90 | 1010.5 |
| 20260503204403 | 54 | 258 | 0.0 | 0.0 | 0.00 | 0.00 | 0.00 | 90 | 1010.5 |
| 20260503203904 | 54 | 258 | 0.0 | 0.0 | 0.00 | 0.00 | 0.00 | 90 | 1010.5 |
| 20260503203404 | 54 | 258 | 0.0 | 2.0 | 0.00 | 0.00 | 0.00 | 90 | 1010.5 |
| 20260503202903 | 54 | 226 | 0.0 | 5.0 | 0.00 | 0.00 | 0.00 | 90 | 1010.2 |
| 20260503202403 | 54 | 238 | 1.0 | 3.0 | 0.00 | 0.00 | 0.00 | 90 | 1010.2 |
| 20260503201903 | 54 | 234 | 2.0 | 3.0 | 0.00 | 0.00 | 0.00 | 90 | 1010.2 |
| 20260503201403 | 54 | 230 | 2.0 | 5.0 | 0.00 | 0.00 | 0.00 | 90 | 1010.2 |
| 20260503200903 | 54 | 239 | 2.0 | 6.0 | 0.00 | 0.00 | 0.00 | 90 | 1010.2 |
| 20260503195904 | 54 | 233 | 1.0 | 3.0 | 0.00 | 0.00 | 0.00 | 90 | 1010.2 |
| 20260503195403 | 54 | 196 | 2.0 | 6.0 | 0.00 | 0.00 | 0.00 | 89 | 1010.2 |
| 20260503194904 | 54 | 205 | 3.0 | 6.0 | 0.00 | 0.00 | 0.00 | 89 | 1010.2 |
| 20260503194404 | 54 | 220 | 3.0 | 7.0 | 0.00 | 0.00 | 0.00 | 89 | 1009.9 |
| 20260503193403 | 54 | 205 | 2.0 | 7.0 | 0.00 | 0.00 | 0.00 | 89 | 1009.9 |
| 20260503192903 | 54 | 190 | 3.0 | 6.0 | 0.00 | 0.00 | 0.00 | 89 | 1009.9 |
| 20260503191904 | 54 | 191 | 5.0 | 7.0 | 0.00 | 0.00 | 0.00 | 88 | 1009.9 |
| 20260503185903 | 55 | 225 | 2.0 | 5.0 | 0.00 | 0.00 | 0.00 | 87 | 1009.6 |
| 20260503185403 | 55 | 206 | 4.0 | 8.0 | 0.00 | 0.00 | 0.00 | 86 | 1009.6 |
| 20260503184903 | 56 | 196 | 3.0 | 8.0 | 0.00 | 0.00 | 0.00 | 86 | 1009.6 |
| 20260503184403 | 56 | 214 | 5.0 | 8.0 | 0.00 | 0.00 | 0.00 | 85 | 1009.6 |
| 20260503183903 | 56 | 196 | 2.0 | 7.0 | 0.00 | 0.00 | 0.00 | 85 | 1009.5 |
| 20260503183403 | 57 | 227 | 3.0 | 5.0 | 0.00 | 0.00 | 0.00 | 85 | 1009.5 |
| 20260503182903 | 57 | 232 | 2.0 | 7.0 | 0.00 | 0.00 | 0.00 | 85 | 1009.5 |
| 20260503182404 | 57 | 220 | 2.0 | 6.0 | 0.00 | 0.00 | 0.00 | 85 | 1009.5 |
| 20260503181903 | 57 | 189 | 4.0 | 8.0 | 0.00 | 0.00 | 0.00 | 84 | 1009.2 |
| 20260503181404 | 57 | 205 | 3.0 | 8.0 | 0.00 | 0.00 | 0.00 | 84 | 1009.2 |
| 20260503180903 | 57 | 203 | 5.0 | 8.0 | 0.00 | 0.00 | 0.00 | 83 | 1009.2 |
| 20260503180403 | 57 | 207 | 5.0 | 9.0 | 0.00 | 0.00 | 0.00 | 83 | 1009.2 |
| 20260503175903 | 58 | 181 | 4.0 | 8.0 | 0.00 | 0.00 | 0.00 | 82 | 1009.2 |
| 20260503174903 | 58 | 204 | 5.0 | 10.0 | 0.00 | 0.00 | 0.00 | 81 | 1009.2 |
| 20260503173403 | 59 | 220 | 5.0 | 8.0 | 0.00 | 0.00 | 0.00 | 79 | 1009.1 |
| 20260503172904 | 60 | 199 | 4.0 | 7.0 | 0.00 | 0.00 | 0.00 | 79 | 1009.1 |
| 20260503172404 | 60 | 208 | 5.0 | 10.0 | 0.00 | 0.00 | 0.00 | 79 | 1009.1 |
| 20260503171904 | 60 | 206 | 2.0 | 7.0 | 0.00 | 0.00 | 0.00 | 79 | 1009.1 |
| 20260503171403 | 59 | 215 | 4.0 | 9.0 | 0.00 | 0.00 | 0.00 | 78 | 1009.1 |
| 20260503170903 | 60 | 186 | 5.0 | 9.0 | 0.00 | 0.00 | 0.00 | 78 | 1009.1 |
| 20260503150904 | 62 | 228 | 4.0 | 9.0 | 0.00 | 0.00 | 0.00 | 75 | 1009.5 |
| 20260503131403 | 63 | 231 | 5.0 | 9.0 | 0.00 | 0.18 | 0.00 | 75 | 1009.9 |
| 20260503130903 | 63 | 210 | 5.0 | 9.0 | 0.00 | 0.18 | 0.00 | 74 | 1009.9 |
| 20260503130403 | 63 | 226 | 4.0 | 10.0 | 0.00 | 0.18 | 0.00 | 75 | 1009.9 |
| 20260503090403 | 57 | 295 | 3.0 | 7.0 | 0.00 | 0.18 | 0.00 | 87 | 1009.9 |
| 20260503081403 | 54 | 303 | 3.0 | 5.0 | 0.00 | 0.18 | 0.00 | 91 | 1009.8 |
| 20260503080903 | 55 | 280 | 3.0 | 5.0 | 0.00 | 0.18 | 0.00 | 92 | 1009.8 |
| 20260503080403 | 54 | 300 | 3.0 | 5.0 | 0.00 | 0.18 | 0.00 | 92 | 1009.8 |
| 20260503072903 | 54 | 202 | 2.0 | 3.0 | 0.00 | 0.18 | 0.00 | 93 | 1009.9 |
| 20260503072403 | 54 | 211 | 0.0 | 3.0 | 0.00 | 0.18 | 0.00 | 93 | 1009.9 |
| 20260503070903 | 53 | 234 | 0.0 | 2.0 | 0.00 | 0.18 | 0.00 | 94 | 1009.8 |
| 20260503070403 | 53 | 271 | 1.0 | 3.0 | 0.00 | 0.18 | 0.00 | 94 | 1009.8 |